Wind_Speed
14 12 10 9 8 7 5 2 2 4 6 7 9 11 13 13 14 15 17 18 20 21 22 23 22 20 19 18 18 19 19 20 20 21 21 22 23 23 23 24 24 23 23 23 23 23 23 22 22 22 21 20 20 19 19 18 18 17 17 17 17 17 17 17 18 18 18 19 20 21 22 22 23 24 26 28 30 31 33 34 36 36 36 36 36
16 15 14 14 13 12 10 8 4 1 3 6 7 9 12 14 15 16 17 18 19 20 21 22 23 22 21 20 19 19 18 19 19 20 20 21 22 22 23 23 23 23 22 22 22 22 22 22 22 22 21 21 20 19 19 18 18 18 18 19 19 20 20 21 21 22 23 24 25 26 27 28 29 30 32 33 33 34 35 36 37 37 37 37 37
19 18 17 17 16 14 13 13 10 5 2 5 7 9 11 13 15 17 18 19 19 20 21 21 22 23 23 22 21 20 19 19 19 19 19 19 20 21 21 21 22 22 21 21 21 21 21 21 21 21 20 20 19 19 18 18 18 18 19 20 22 22 23 24 24 25 26 26 27 29 31 32 33 34 34 34 34 35 35 36 37 38 38 38 38
18 19 18 18 17 16 15 15 12 7 4 4 6 8 10 12 14 16 18 20 20 20 21 22 22 23 23 23 22 22 21 20 19 18 18 18 18 18 19 19 20 20 19 19 19 19 19 19 19 19 19 18 18 18 17 17 18 19 20 21 23 24 25 26 26 27 27 28 28 30 31 32 33 34 34 34 35 35 35 36 37 37 37 37 37
17 17 18 19 19 19 18 16 13 10 7 7 7 8 9 11 13 15 17 19 20 20 21 22 22 23 22 22 22 21 21 20 20 19 18 17 16 16 16 16 17 17 17 17 16 17 17 17 17 17 17 17 17 16 16 16 17 18 19 21 23 24 26 26 27 28 29 29 29 30 31 32 32 32 32 33 33 34 34 35 35 35 34 34 33
21 21 21 22 22 20 18 16 15 14 12 11 10 9 8 10 14 16 17 18 19 21 22 22 23 23 21 20 19 19 19 19 19 18 18 16 15 14 14 13 13 14 14 13 13 14 14 14 14 14 15 15 15 14 14 14 15 16 18 20 22 24 26 27 28 29 30 30 31 30 31 31 32 31 31 31 31 32 32 32 32 31 30 29 28
25 26 26 25 23 21 18 16 17 19 19 17 15 12 10 10 13 17 18 18 18 20 22 23 24 23 21 19 18 17 17 17 17 17 16 16 15 13 12 12 11 11 12 11 11 11 11 11 11 11 12 12 12 12 12 12 13 14 16 18 20 23 24 26 27 29 30 31 31 31 31 30 30 30 29 29 28 28 28 27 26 25 24 23 23
27 27 26 25 23 22 21 19 16 17 18 17 17 16 14 13 14 16 18 20 20 20 21 23 24 24 22 19 17 15 15 16 16 16 15 15 14 13 12 11 10 10 10 10 10 9 9 9 8 8 9 10 10 10 10 10 11 12 14 15 18 20 22 23 25 26 27 27 26 26 27 26 25 23 23 22 21 21 20 19 18 18 18 17 16
27 25 25 24 22 22 24 22 17 15 15 13 13 16 17 16 16 16 19 22 23 21 21 22 24 25 24 22 19 17 15 14 15 15 14 14 13 13 12 11 10 10 9 9 9 9 8 8 7 6 6 6 7 7 8 8 9 11 12 13 15 17 18 20 20 21 22 22 20 20 19 18 16 16 16 15 15 14 13 13 12 12 11 11 11
28 26 24 23 22 24 27 25 20 17 14 12 13 16 17 18 18 18 19 22 24 23 21 21 23 24 25 25 23 20 16 14 14 14 13 12 12 12 12 11 10 10 8 8 8 8 8 7 6 5 4 3 3 4 5 6 8 9 11 12 13 14 16 16 17 17 16 16 14 13 13 11 11 11 11 10 10 9 9 8 8 7 7 8 8
28 27 26 25 26 28 29 27 23 20 17 16 17 20 22 22 20 20 21 22 24 25 24 23 23 24 24 25 25 24 20 16 15 15 13 12 11 11 11 10 10 9 8 8 8 8 8 7 6 6 4 3 1 1 2 4 6 7 9 11 12 13 13 14 14 13 12 11 9 9 8 8 7 7 6 5 5 4 4 4 4 5 6 6 6
27 29 30 30 33 35 32 29 27 24 22 21 20 21 24 23 19 20 24 26 28 30 29 27 26 25 25 25 25 25 23 20 18 17 15 14 12 11 11 11 10 9 9 8 8 8 8 8 8 7 7 6 5 4 3 4 5 6 8 10 10 11 12 12 12 12 11 9 8 7 6 5 4 4 3 1 1 2 3 3 4 5 5 6 6
30 33 33 32 36 39 36 32 30 28 28 26 24 23 23 21 18 18 22 27 33 36 35 32 30 28 28 27 27 26 25 23 21 20 18 16 15 13 12 12 11 10 9 9 9 9 9 9 9 9 9 9 8 8 7 7 7 8 9 10 10 11 11 12 12 12 11 10 9 8 7 6 5 5 5 4 3 3 4 5 6 6 6 7 7
39 41 40 39 40 41 38 34 32 31 31 28 25 23 22 19 18 21 24 28 33 36 36 34 32 31 31 31 31 29 27 25 24 22 21 20 18 16 14 12 12 12 11 11 10 10 10 10 11 11 12 12 12 12 12 11 11 11 11 12 12 12 13 13 13 13 12 11 10 10 9 9 8 8 8 8 8 8 8 9 9 9 9 10 10
48 48 49 49 47 43 38 33 31 31 31 27 24 25 24 22 23 28 32 32 31 31 36 36 33 34 35 35 35 33 29 28 26 25 25 24 22 20 17 14 13 13 13 13 13 13 13 13 12 13 14 14 14 15 15 15 15 15 15 15 15 15 15 16 16 15 15 14 14 13 12 12 11 11 12 12 12 13 13 13 14 13 14 14 14
53 53 55 55 53 48 41 35 31 30 28 25 23 25 27 26 26 30 34 34 29 27 34 39 38 38 39 39 39 37 33 31 30 29 28 28 26 24 21 18 15 14 14 15 15 15 15 15 15 15 15 15 15 16 17 18 18 18 18 18 18 17 17 18 19 19 19 18 18 17 17 16 16 16 16 16 17 17 17 18 18 19 19 19 19
58 58 59 60 60 55 49 45 41 38 37 35 32 30 28 25 25 27 30 31 29 29 35 42 44 44 43 42 42 41 38 36 35 33 32 31 30 28 25 22 20 18 16 16 16 17 18 18 18 17 17 16 16 18 19 20 20 20 20 21 21 20 19 20 22 23 23 23 23 23 22 22 21 21 21 21 21 21 21 21 21 21 21 21 22
65 63 63 64 65 63 59 56 53 52 52 50 47 43 36 29 26 26 27 28 30 35 40 45 47 46 46 46 45 43 42 40 39 38 35 32 30 29 28 27 25 23 21 19 19 19 19 19 19 19 18 18 18 19 21 22 23 23 22 23 24 22 20 21 24 25 24 25 25 25 25 24 24 24 23 23 23 22 21 21 20 20 20 21 22
72 69 68 68 69 68 67 66 64 63 62 60 57 54 49 44 40 39 38 38 40 44 48 50 49 48 47 48 48 47 45 44 42 41 39 36 33 30 29 29 29 28 26 24 23 23 21 20 19 19 19 19 20 21 23 24 26 26 25 25 26 23 21 23 26 27 25 25 24 24 24 23 23 23 22 22 22 21 21 21 21 22 22 21 22
77 76 74 73 73 73 72 73 72 71 69 66 64 61 60 58 57 57 58 58 58 58 58 56 54 52 50 48 48 48 48 47 45 44 42 41 39 37 35 34 33 30 29 29 28 27 25 23 22 22 22 22 22 23 24 25 27 28 28 28 27 24 22 25 28 29 28 27 25 25 25 24 24 23 23 23 23 23 23 24 23 23 23 22 21
83 82 81 80 79 78 77 77 77 77 76 73 70 68 66 65 65 65 66 66 66 65 63 60 59 58 56 53 49 47 47 48 47 46 45 44 44 43 40 38 36 33 32 32 32 31 30 28 26 26 27 27 27 27 27 27 27 29 30 30 29 27 25 26 28 29 30 30 29 28 27 26 25 26 25 25 25 25 25 25 23 22 23 21 20
89 89 88 87 85 84 82 81 80 81 81 80 77 75 73 71 69 69 69 69 68 67 65 63 62 62 62 60 57 53 51 49 47 44 43 44 45 46 43 38 36 36 35 35 34 34 34 33 32 31 32 33 33 32 32 30 30 31 32 32 31 29 28 27 28 28 29 31 32 33 31 28 26 26 26 26 25 25 25 25 24 22 22 21 19
94 94 94 94 93 92 90 88 86 85 85 85 84 82 80 77 75 73 73 72 71 70 69 67 66 66 66 65 64 61 59 56 51 45 41 41 43 46 46 42 39 38 39 39 37 36 35 36 36 37 37 37 37 36 35 35 34 35 35 34 33 31 30 30 29 29 29 30 32 33 34 32 29 27 26 26 26 25 24 24 24 23 22 21 20
97 97 98 98 98 98 97 95 93 91 90 90 89 88 87 84 82 80 78 77 75 73 71 70 70 69 69 69 68 66 65 63 60 57 54 51 50 50 51 50 47 46 46 45 44 42 41 39 38 39 40 41 41 40 38 38 38 38 38 37 36 34 33 32 32 31 31 32 32 32 33 34 33 31 29 27 26 25 24 23 23 23 23 22 22
99 100 100 100 100 100 100 99 97 94 93 93 93 92 92 90 87 85 82 80 78 76 74 73 72 72 72 72 71 69 68 67 66 64 63 62 60 58 56 55 54 53 52 52 52 51 49 47 44 43 43 43 44 45 44 42 41 40 39 39 38 37 36 34 34 33 34 34 34 34 34 34 34 34 33 31 29 27 25 24 23 23 23 24 24
102 102 103 103 102 101 101 101 99 97 95 94 94 93 93 91 90 87 85 83 81 80 78 76 75 74 74 74 73 72 71 70 69 68 67 66 64 63 61 60 59 57 55 54 53 51 50 49 48 47 46 45 45 47 48 48 45 42 41 40 40 39 38 37 36 36 36 37 37 36 36 35 34 35 36 35 34 31 28 26 25 25 25 25 26
104 105 105 104 104 103 103 102 101 99 98 97 95 94 93 92 90 89 87 85 84 82 81 80 79 78 77 77 76 76 74 73 72 71 70 69 68 67 66 65 65 64 62 60 57 53 49 47 47 47 49 49 49 50 50 51 50 48 46 44 43 42 41 40 39 39 39 39 39 38 38 36 35 35 36 37 38 37 33 29 29 28 27 26 29
106 106 106 106 105 105 104 103 103 101 100 99 97 96 94 93 91 90 89 87 86 85 84 83 82 81 80 80 80 79 78 76 75 74 73 73 72 71 70 69 68 68 67 67 65 62 58 56 56 57 57 57 56 55 53 52 53 53 51 49 47 46 44 43 42 42 41 41 41 41 40 39 36 36 36 37 40 41 38 34 34 33 30 28 31
108 107 107 107 107 106 105 105 104 103 101 100 99 98 97 95 93 91 90 89 89 88 87 86 85 84 84 83 83 83 82 80 79 78 77 77 76 75 74 73 72 71 70 69 69 67 66 66 66 65 64 63 61 59 58 56 55 54 54 53 51 50 48 47 46 45 44 43 42 43 43 41 39 37 37 37 40 43 41 38 38 38 36 33 33
111 110 109 108 107 107 106 106 105 105 103 102 101 100 99 99 97 96 94 92 91 91 90 90 89 88 87 87 86 86 86 84 83 81 81 81 80 79 78 76 75 75 74 72 71 70 69 69 69 68 67 67 65 63 61 60 59 58 56 55 55 54 53 51 50 49 48 46 45 45 45 44 42 40 39 38 40 43 43 41 40 40 40 38 37
112 112 111 110 108 107 107 106 106 106 105 105 104 103 102 102 101 101 99 97 96 95 94 93 93 92 91 90 90 89 89 88 87 85 84 84 84 83 82 80 79 79 77 76 75 74 73 72 72 71 70 70 69 68 65 64 63 62 61 60 59 58 57 56 55 53 51 51 50 49 48 47 46 45 43 41 41 42 44 44 42 41 41 41 41
114 113 112 111 111 109 108 107 107 107 107 106 106 105 105 104 104 103 102 101 100 99 98 97 96 95 94 93 93 92 92 91 90 89 88 87 87 86 85 84 83 82 81 80 79 77 76 75 74 73 73 72 72 71 70 68 66 65 65 64 63 61 60 60 59 57 56 55 54 53 52 51 50 48 46 45 44 44 45 46 46 44 43 42 43
114 114 114 113 113 112 111 110 109 109 109 108 108 107 107 106 105 104 103 103 103 102 101 100 99 98 97 96 96 95 95 94 94 93 91 90 89 89 88 88 87 86 85 83 82 81 79 78 77 76 76 75 75 74 73 72 70 69 68 67 66 64 62 61 60 60 60 59 58 57 56 55 53 51 49 47 46 47 48 49 49 47 45 44 44
116 115 115 115 114 114 113 112 112 112 111 111 110 109 109 108 107 106 105 104 104 103 103 103 102 101 100 98 98 98 97 97 97 96 95 94 93 92 91 90 90 89 88 87 86 84 83 81 80 80 79 78 78 77 77 76 74 73 71 70 70 69 67 65 63 62 62 62 62 62 61 59 57 55 54 51 48 48 49 51 52 51 48 46 45
118 117 117 116 116 115 115 114 114 114 114 113 113 112 111 110 109 108 107 106 105 105 105 104 104 103 102 101 100 99 99 99 99 99 98 97 96 95 94 93 93 92 91 90 89 88 86 85 84 83 82 81 81 80 80 80 79 77 76 74 73 73 72 71 69 67 66 65 65 65 65 63 62 60 59 57 54 51 50 51 53 54 52 50 48
122 121 120 119 118 118 117 116 116 115 115 115 114 114 113 112 111 110 110 109 108 107 107 106 106 105 104 103 102 102 101 101 101 101 100 100 99 98 97 97 96 95 93 93 91 90 89 88 87 86 86 85 84 84 83 82 82 81 80 79 78 77 76 75 74 72 70 68 68 68 68 67 66 65 63 61 60 58 55 54 54 55 55 54 52
126 125 124 123 122 121 120 119 119 118 117 117 116 115 115 114 113 113 112 112 111 110 110 109 108 108 107 106 105 105 104 103 103 103 103 102 102 101 100 99 99 98 96 95 94 93 92 91 90 89 89 88 87 87 86 85 85 85 84 83 82 81 80 79 77 75 74 72 71 71 70 70 69 68 66 64 63 63 61 58 56 55 56 57 56
129 129 128 127 126 125 124 123 122 121 120 119 118 118 117 116 116 115 114 114 113 113 112 112 111 110 110 109 108 107 107 107 106 106 105 105 104 104 103 102 101 100 100 99 98 97 96 94 93 92 91 91 90 90 89 88 88 87 87 87 86 85 84 83 82 80 77 75 73 73 73 72 71 70 68 65 63 64 64 62 59 57 57 58 58
132 131 131 130 130 129 128 127 126 125 124 123 122 121 120 119 118 118 117 116 116 115 115 114 114 114 113 112 111 110 109 109 109 108 108 107 107 106 106 105 104 103 103 102 101 100 99 98 97 95 95 94 94 93 92 91 90 90 89 89 89 88 88 87 86 84 82 80 77 75 74 74 73 72 69 65 62 62 63 63 62 61 60 60 61
133 133 133 133 132 132 131 130 129 128 127 127 126 125 124 123 122 121 120 119 118 118 117 117 117 116 116 115 114 113 112 111 111 110 110 110 109 108 108 108 107 106 106 105 105 104 102 101 100 99 98 97 97 96 95 94 93 92 91 91 91 91 91 90 89 88 87 85 82 79 77 77 76 75 72 69 67 67 66 64 64 62 61 61 62
135 135 135 134 134 133 132 132 131 131 130 130 129 129 128 127 126 125 124 123 123 122 121 120 119 119 118 118 117 116 115 114 114 113 113 112 112 111 110 110 109 108 108 108 107 106 105 105 104 103 101 100 99 99 98 97 96 95 94 93 93 93 93 93 92 91 90 89 87 85 83 81 80 79 77 75 74 73 72 70 69 67 65 64 63
135 136 136 136 135 134 133 133 132 132 132 132 132 131 131 130 129 129 128 127 127 126 125 124 123 123 122 121 120 119 118 117 116 116 115 115 115 114 113 112 112 111 110 109 109 108 107 106 106 105 104 103 102 101 100 99 99 97 96 96 95 95 95 95 95 94 93 92 91 90 88 87 85 84 82 81 79 78 77 76 74 73 72 71 70
135 136 137 137 136 136 135 134 134 134 133 133 133 133 132 132 132 131 131 130 130 129 129 128 127 127 126 125 124 124 122 121 120 119 118 118 117 117 116 115 114 114 113 112 111 110 109 108 107 107 106 105 104 103 102 101 100 99 98 97 97 96 96 96 97 97 96 95 95 94 93 92 90 89 88 87 85 83 82 81 80 78 76 75 75
132 134 135 135 136 136 135 135 135 135 135 134 134 134 134 133 133 133 133 132 132 132 131 131 130 130 129 129 129 128 127 126 125 123 122 122 121 120 119 118 117 116 115 114 113 112 111 110 109 109 108 107 107 106 105 104 103 102 100 99 98 98 98 98 98 98 98 97 97 97 97 96 95 94 93 92 91 89 87 87 86 84 82 80 79
130 130 131 132 133 133 134 134 134 135 135 135 135 135 135 135 134 134 134 133 133 133 133 132 132 132 132 132 132 131 131 130 129 128 127 126 125 125 124 122 121 120 119 117 116 115 113 112 111 110 109 109 109 108 108 107 106 105 103 102 101 100 100 100 99 99 99 99 99 99 99 99 98 98 97 96 95 94 93 92 92 91 89 87 85
127 127 128 128 129 129 130 130 131 132 133 134 135 135 136 136 136 136 135 135 134 134 134 134 134 134 134 134 134 134 133 133 132 131 131 130 129 128 128 127 126 124 123 122 120 119 117 116 115 113 112 111 110 110 110 109 109 108 107 106 105 104 103 103 102 102 101 101 100 100 100 100 100 100 100 100 99 98 97 96 96 95 95 94 93
124 124 125 125 125 126 126 126 127 128 129 130 131 132 134 135 135 136 136 136 136 136 136 135 135 135 135 135 135 135 135 135 135 134 133 133 132 131 131 130 129 128 127 126 124 123 121 120 119 117 116 114 113 112 112 111 111 111 110 109 108 107 107 106 106 105 104 104 103 102 102 101 101 101 102 102 102 101 100 99 99 98 98 98 97
119 120 121 122 123 123 123 124 124 125 125 126 127 128 129 131 132 134 135 136 136 137 137 137 137 137 137 137 136 136 136 136 136 136 135 135 134 134 133 133 132 131 130 129 128 127 125 124 122 121 120 118 117 116 115 114 114 113 112 112 111 110 110 109 109 108 108 107 106 106 105 104 103 103 103 103 103 102 102 101 101 100 100 99 99
113 115 116 117 118 119 120 120 121 122 122 123 124 124 125 127 128 129 131 133 134 135 136 137 137 138 138 138 138 138 138 138 137 137 137 136 136 135 135 135 134 134 133 132 131 130 128 127 126 124 123 122 121 120 119 119 118 117 116 115 114 113 113 112 112 111 111 110 110 109 108 108 107 106 106 105 104 104 103 102 102 101 101 99 99
109 110 110 111 112 113 115 115 116 117 118 119 120 121 122 123 125 126 127 129 130 132 133 135 136 137 137 138 138 139 139 139 138 138 138 137 137 136 136 136 135 135 134 134 133 132 131 130 129 128 127 126 125 124 123 122 122 121 120 119 117 116 115 115 114 114 114 113 112 112 111 111 110 110 109 109 108 107 105 104 104 103 102 100 99
102 104 105 106 107 108 109 110 111 112 113 114 116 117 119 120 121 123 124 126 127 129 130 132 133 134 135 136 137 138 138 138 138 138 138 138 137 136 136 135 135 135 135 134 134 133 133 132 132 131 130 129 128 128 127 126 125 125 124 123 122 120 119 118 117 117 117 116 115 114 114 114 113 113 112 112 112 110 109 108 107 106 104 102 101
Wind_Direction
266 277 280 276 278 285 294 309 29 22 9 7 6 3 4 7 9 11 9 5 5 6 7 7 7 8 8 9 11 13 17 22 26 30 32 33 34 36 38 39 41 43 44 45 45 44 44 44 43 43 42 41 42 42 43 44 47 50 52 55 56 55 56 57 60 62 65 68 71 75 78 81 85 89 93 96 98 100 102 104 106 107 108 108 108
263 272 283 286 282 279 279 274 254 277 341 341 349 354 357 358 0 4 6 4 2 0 1 2 2 3 3 4 5 6 9 13 17 23 27 29 30 32 34 36 38 40 42 44 45 45 44 44 44 43 43 44 45 46 47 50 53 57 61 64 67 68 69 70 71 73 75 78 81 85 88 90 93 98 101 102 104 106 107 109 110 111 111 111 110
264 268 277 288 288 274 265 263 250 232 280 320 334 344 348 350 351 354 356 357 359 358 357 358 358 359 359 0 2 2 3 6 10 14 20 24 26 27 29 32 34 37 38 40 43 45 45 45 45 46 47 48 49 50 53 57 60 64 68 72 75 76 77 78 79 80 81 84 88 92 96 99 102 106 107 108 109 110 111 112 113 113 113 112 110
260 263 269 278 280 270 264 265 264 257 276 311 323 332 340 344 345 347 346 346 351 354 354 354 355 355 356 357 358 360 1 1 3 6 10 16 20 22 25 27 30 33 35 36 40 43 45 46 47 49 51 53 55 57 60 64 67 72 75 78 81 83 85 85 86 88 89 92 95 99 103 106 109 112 113 114 114 115 115 115 115 113 112 111 109
259 260 262 264 266 267 268 272 274 273 282 305 315 321 335 342 342 342 340 338 341 345 347 348 350 351 353 353 354 356 357 357 358 359 1 5 10 14 18 22 25 29 31 34 36 40 44 47 49 52 55 58 61 64 67 71 75 80 83 86 88 91 93 94 95 97 99 101 104 107 110 112 114 116 117 118 118 118 118 117 115 113 110 108 106
261 260 259 258 261 265 266 266 265 260 264 286 302 310 324 332 332 333 332 331 333 335 337 339 342 344 346 346 348 350 351 352 352 352 353 355 359 3 7 13 19 22 26 29 33 38 43 47 50 55 58 62 66 71 76 78 82 86 90 94 97 99 101 103 104 106 108 110 113 114 116 117 119 120 120 120 120 120 120 118 116 112 107 104 101
260 262 261 258 261 265 261 256 254 248 251 268 281 288 302 317 323 325 324 324 324 323 325 328 332 336 338 338 339 342 343 342 343 344 345 346 348 351 355 1 9 14 17 20 24 31 39 44 50 56 62 68 72 77 83 87 91 94 98 102 104 106 108 110 111 113 114 115 117 119 120 120 120 120 120 120 119 118 118 116 111 106 101 98 95
254 260 258 255 259 265 260 252 249 246 250 262 266 267 277 298 315 320 318 315 313 313 316 320 323 326 329 330 330 332 333 333 334 336 338 339 340 342 344 348 355 2 5 7 10 17 27 35 42 51 62 72 80 86 91 98 102 107 110 111 113 114 116 117 117 118 118 117 116 118 120 118 116 115 114 112 111 110 110 106 101 96 90 84 83
248 256 256 256 262 266 258 250 248 252 257 263 263 262 270 283 297 309 312 309 306 305 307 312 316 318 320 321 320 321 323 324 325 328 331 333 333 333 334 335 339 345 351 352 354 358 7 15 25 37 53 71 87 99 106 113 119 122 124 124 123 123 124 124 124 124 124 121 117 118 119 115 111 111 110 106 102 100 99 94 90 85 73 64 68
243 250 254 255 255 255 253 250 251 252 251 255 263 269 276 281 286 293 302 306 304 299 298 302 307 310 312 314 313 312 313 315 317 319 323 327 325 323 322 323 323 326 331 335 336 339 345 351 358 8 23 50 86 112 126 134 139 140 141 139 136 135 134 133 132 131 130 127 123 122 124 120 114 113 110 103 96 92 87 82 77 67 51 47 54
239 245 247 246 242 241 243 245 248 247 240 242 251 257 265 274 282 286 292 298 297 292 290 292 297 301 304 305 305 305 304 306 309 312 314 317 317 314 310 310 310 310 313 317 319 320 324 327 328 330 329 329 329 169 163 167 166 164 162 159 155 152 149 146 144 142 140 136 132 131 132 131 127 122 114 99 82 71 63 52 43 33 24 20 18
233 237 237 239 239 238 238 238 240 239 236 237 243 249 256 264 276 285 288 292 292 288 284 283 286 291 293 295 296 297 296 296 300 304 304 305 308 307 302 298 295 296 296 299 302 304 304 304 304 304 301 297 288 270 249 225 207 197 190 184 179 174 169 164 162 160 158 156 153 152 153 152 153 156 157 147 42 12 357 347 342 343 345 342 338
216 223 226 230 235 238 239 239 239 238 236 237 244 251 255 261 272 276 277 282 286 285 280 276 277 281 284 285 287 288 289 289 291 294 294 294 295 296 297 292 286 284 284 283 285 286 286 285 284 283 283 281 277 270 261 250 238 227 218 210 204 199 193 186 182 180 180 180 181 183 187 192 201 209 214 224 248 277 291 298 298 299 307 313 313
215 220 224 228 233 237 239 241 239 237 238 240 243 247 248 252 259 258 259 267 275 277 274 269 269 273 276 279 280 280 282 283 285 286 285 285 285 285 288 291 286 280 276 273 272 271 269 268 269 271 271 271 270 268 263 257 250 243 235 227 222 219 215 210 207 206 205 206 207 208 209 214 222 228 231 240 252 264 272 277 277 276 279 286 290
222 225 228 230 232 233 232 235 236 235 237 238 239 240 239 237 241 246 253 258 262 266 268 266 266 268 270 273 275 275 277 279 281 282 281 278 278 278 281 285 285 279 273 268 265 263 261 259 258 260 262 264 265 266 264 261 258 254 248 241 235 232 231 228 225 225 225 225 227 228 230 234 239 243 246 251 257 263 270 274 276 275 274 277 280
224 226 229 232 233 229 222 222 228 231 232 234 236 239 239 236 235 243 252 256 256 258 261 263 266 267 266 268 271 272 274 276 278 279 279 275 273 273 275 277 278 277 274 269 265 264 263 260 257 255 256 257 260 262 262 261 260 258 256 252 248 246 246 245 241 237 236 237 238 239 242 244 249 252 255 258 261 263 267 272 276 278 279 279 280
226 226 228 232 235 232 225 222 228 234 237 240 243 243 241 238 237 244 253 256 252 249 254 262 268 267 265 265 268 269 270 272 275 277 276 273 270 269 271 272 271 270 271 272 271 268 266 263 260 258 257 257 258 259 259 259 258 256 256 256 254 252 254 257 254 248 245 245 246 247 249 252 255 257 259 261 264 265 267 270 273 276 279 280 280
230 228 228 230 234 236 234 232 236 241 245 248 249 246 241 236 234 237 243 247 246 245 251 261 266 265 264 265 266 266 267 268 270 273 273 271 267 266 268 270 269 267 266 267 269 269 267 266 264 261 259 259 260 261 261 260 258 256 255 255 255 253 255 259 258 255 252 250 250 252 253 255 257 259 262 263 265 267 268 269 272 275 278 281 282
231 231 230 230 233 236 238 240 242 246 249 251 251 247 242 237 234 235 237 242 247 248 253 260 262 261 262 263 264 266 266 265 266 269 270 270 267 267 270 270 268 267 265 264 265 266 267 269 270 269 264 260 258 259 261 262 262 260 257 257 256 256 257 259 260 260 257 254 254 255 256 256 257 259 260 262 265 268 270 272 275 279 281 282 283
232 233 234 234 235 237 240 243 246 248 250 251 250 249 247 244 243 243 245 249 253 255 257 261 261 259 259 260 261 263 265 266 265 266 267 268 266 268 273 273 268 266 266 264 263 264 265 267 270 272 272 268 264 261 261 263 265 264 262 260 259 257 255 257 261 264 264 261 260 260 260 261 262 263 264 265 267 270 273 276 278 279 281 281 281
234 235 236 237 237 239 241 244 246 248 250 251 251 251 251 250 249 250 251 253 255 257 259 260 259 258 258 258 258 259 261 264 266 266 267 267 265 265 271 273 269 267 268 266 264 263 263 264 266 268 269 271 269 267 265 265 266 266 265 264 263 260 256 256 260 264 266 267 266 264 263 264 266 268 269 270 271 272 274 276 277 277 278 279 279
237 236 237 239 239 240 242 244 246 247 250 252 253 253 253 253 253 253 254 255 256 257 258 258 258 258 257 257 256 255 256 259 262 264 265 266 264 263 264 267 267 267 269 270 268 266 265 264 264 265 266 267 268 268 268 268 269 268 267 266 266 265 261 260 260 261 264 267 268 269 268 267 266 268 271 273 274 273 273 274 275 274 274 276 277
239 238 238 239 241 242 243 245 246 247 249 251 253 254 254 255 254 255 255 256 256 257 257 257 257 257 256 257 257 256 255 255 256 256 257 260 262 261 260 260 263 265 268 269 269 270 270 269 268 267 266 267 268 268 269 270 271 271 271 271 271 270 267 264 261 260 261 262 265 269 272 272 271 270 271 273 273 273 272 271 271 270 269 271 274
240 239 239 240 242 244 245 246 247 248 248 249 251 253 254 255 255 255 256 256 256 256 256 256 256 256 256 256 256 257 256 255 255 254 254 256 258 259 258 259 262 265 268 268 267 269 272 272 271 271 270 270 269 268 268 268 269 269 271 272 273 272 270 268 264 262 260 260 260 262 266 271 274 273 272 271 271 272 272 271 269 267 266 267 269
242 242 242 242 243 244 246 247 248 249 249 249 250 251 252 254 254 255 255 255 255 255 255 255 255 255 255 256 256 256 257 257 257 257 257 257 257 257 257 258 261 265 269 268 267 267 269 268 268 270 272 272 271 270 269 268 268 267 267 268 270 271 271 270 268 266 263 260 259 257 258 262 267 272 274 273 272 271 272 272 271 267 265 266 265
243 243 244 244 245 246 246 247 248 249 250 250 251 251 252 253 253 254 254 254 254 254 254 254 254 254 255 255 256 256 257 258 258 258 258 258 257 256 255 255 257 261 264 266 265 267 269 267 265 267 270 271 272 272 270 268 268 268 267 267 269 270 271 271 270 269 266 263 260 259 258 258 260 265 270 273 273 272 271 271 271 267 264 264 265
244 245 245 245 246 247 247 248 248 249 250 251 251 252 252 253 253 253 253 253 254 254 254 253 253 254 254 255 256 256 257 257 258 259 259 259 258 257 255 255 255 256 258 260 261 262 264 264 263 265 268 270 272 272 270 268 267 267 268 268 268 269 270 270 270 270 269 267 265 263 260 258 258 260 262 266 269 272 272 272 270 266 260 259 262
244 245 246 246 247 247 248 249 249 250 250 251 251 252 252 253 253 253 253 253 253 253 253 253 254 254 254 255 255 256 256 257 258 259 259 259 259 258 257 256 256 256 257 258 259 259 259 260 262 265 267 269 270 270 269 268 266 266 266 267 268 268 268 268 268 268 269 269 269 268 265 260 258 257 258 259 262 266 269 270 270 267 262 259 260
244 244 245 246 247 248 249 249 250 250 251 251 252 252 252 252 252 253 252 253 252 252 253 253 254 254 254 255 255 256 256 256 257 258 258 258 258 259 258 258 258 257 257 258 259 260 260 260 262 264 266 267 268 268 267 266 266 265 265 265 266 266 267 267 267 267 268 269 269 269 268 265 261 258 256 255 257 261 264 265 266 268 267 264 261
244 244 245 246 247 248 249 249 250 251 251 251 251 252 252 252 252 252 252 252 252 253 253 254 254 254 254 254 255 256 256 256 256 257 257 258 258 258 258 258 258 258 258 258 258 259 260 261 262 263 264 265 266 266 265 264 264 264 264 263 264 265 265 266 266 266 267 268 268 267 267 267 266 263 260 256 255 257 260 260 261 263 266 266 264
244 244 245 245 246 247 248 249 249 250 251 251 251 252 252 252 253 253 253 252 252 253 254 254 254 254 254 254 255 255 256 256 256 256 256 257 257 257 257 257 257 257 257 258 258 258 259 260 260 261 262 263 264 265 265 263 262 262 262 262 263 264 264 264 264 265 266 267 267 266 266 267 267 267 265 262 258 255 256 257 258 259 260 262 264
244 244 245 245 246 246 246 247 248 249 250 250 251 251 252 252 253 253 254 254 253 253 253 253 253 254 254 254 254 255 255 255 255 255 255 255 256 256 256 257 257 257 257 257 258 258 258 259 259 260 261 261 263 263 263 263 262 261 261 261 262 263 263 262 262 263 264 265 266 266 266 266 266 266 266 265 262 258 256 255 256 257 258 258 260
245 245 245 245 245 246 246 247 247 248 248 249 250 250 251 252 252 253 253 254 254 254 254 253 253 253 253 253 254 254 254 255 255 255 255 254 255 255 256 256 257 257 257 257 257 257 258 258 259 259 260 260 261 262 262 262 261 260 260 259 260 260 261 261 260 261 262 263 264 265 265 266 266 265 264 264 264 263 260 257 255 256 257 256 256
246 246 246 246 246 246 246 246 247 247 248 248 249 249 250 251 251 252 252 252 253 254 254 254 254 254 253 253 253 253 254 254 254 255 255 254 254 254 254 255 256 256 257 257 257 257 257 257 258 258 259 259 260 260 261 261 261 260 259 258 258 258 258 258 259 259 260 261 262 263 264 265 265 265 265 265 265 265 264 262 259 258 258 256 255
246 247 247 247 247 247 247 247 247 247 247 248 248 249 249 250 250 251 251 251 252 252 253 254 254 254 254 254 253 253 253 253 253 254 254 255 255 254 254 254 255 255 256 256 257 257 257 257 257 257 257 258 258 259 259 260 260 260 259 258 257 257 257 257 258 258 259 260 261 261 262 263 264 265 266 266 266 266 265 263 262 261 260 258 256
247 248 248 248 248 248 248 248 248 248 248 248 249 249 249 250 250 250 251 251 251 251 252 252 253 253 253 253 253 253 253 253 253 254 254 254 255 255 255 255 255 255 255 256 256 256 257 257 257 257 257 257 257 257 258 258 259 259 259 258 257 256 256 257 257 257 258 258 259 259 260 261 262 263 264 266 267 267 266 264 262 261 261 260 259
248 248 248 249 249 249 249 249 249 249 249 249 250 250 250 250 250 250 250 251 251 251 251 252 252 252 252 253 253 253 253 253 253 253 254 254 254 254 255 255 255 255 255 255 255 255 256 256 256 257 257 257 257 257 257 257 258 258 258 258 257 257 256 256 256 257 257 257 258 258 258 259 259 261 262 263 265 266 266 265 263 262 261 261 261
248 248 249 249 249 249 250 250 250 250 250 250 251 251 251 251 250 250 250 251 251 251 251 252 252 252 252 252 252 252 253 253 253 253 253 254 254 254 254 255 255 255 255 255 255 255 255 255 255 256 256 257 257 257 257 257 258 258 258 258 258 257 256 256 255 255 256 256 257 257 257 257 258 259 259 261 263 265 265 265 265 264 262 261 260
248 249 249 249 249 249 250 250 250 250 251 251 251 251 251 252 251 251 251 251 251 251 251 252 252 252 252 253 252 252 252 253 253 253 253 253 254 254 254 254 254 255 255 255 255 255 255 255 255 255 255 255 256 256 256 257 257 257 258 258 258 258 257 256 255 255 255 255 256 256 256 256 257 257 258 259 261 263 263 263 263 264 263 262 260
249 249 249 249 250 250 250 250 250 251 251 251 251 252 252 252 252 252 252 252 252 252 252 252 252 252 253 253 253 253 253 253 253 253 253 253 253 253 253 254 254 254 254 254 255 255 256 256 256 255 255 255 255 255 255 255 255 256 256 257 258 258 258 258 257 255 255 254 255 255 255 255 255 256 257 257 257 259 260 260 261 261 262 262 262
250 250 250 250 250 250 250 250 251 251 251 251 251 252 252 252 252 253 253 253 253 253 253 253 253 253 253 253 253 253 253 253 253 253 253 253 253 253 253 253 253 253 253 254 254 254 255 255 255 256 256 255 255 255 255 255 254 254 254 255 256 256 257 258 258 257 256 255 254 254 254 255 255 256 256 257 257 257 258 258 259 259 260 260 261
249 250 250 250 251 251 251 251 251 251 251 252 252 252 252 252 252 253 253 253 253 254 254 254 254 254 254 254 254 254 254 253 253 253 253 253 253 253 253 253 253 253 253 253 253 253 253 254 254 254 255 255 255 255 255 255 255 254 254 253 253 254 255 256 257 257 257 256 255 254 253 254 255 256 257 257 257 257 258 258 258 259 259 259 259
249 249 250 250 250 251 251 251 251 252 252 252 252 252 252 253 253 253 253 253 253 253 254 254 254 254 254 254 254 254 254 254 254 253 253 254 254 253 253 253 253 253 253 253 252 252 252 252 253 253 253 254 254 255 255 255 255 255 254 254 253 253 253 254 255 255 256 256 256 255 254 253 253 254 256 257 258 258 258 259 259 260 260 260 260
249 249 249 250 250 250 250 251 251 252 252 253 253 253 253 253 253 253 253 253 253 254 254 254 254 254 254 255 255 255 255 254 254 254 254 254 254 254 254 253 253 253 253 253 253 253 252 252 252 252 252 252 253 253 254 254 254 254 255 255 254 254 254 254 254 254 254 254 255 255 255 254 253 253 254 255 256 257 258 259 260 261 261 261 261
250 250 250 250 250 250 250 250 251 251 252 252 253 253 253 254 254 254 254 254 254 254 254 254 254 254 254 254 254 255 254 254 254 254 254 254 254 254 254 254 253 253 253 253 253 253 253 252 252 252 251 251 252 252 252 253 253 253 253 254 254 254 254 254 254 254 254 254 254 254 254 255 254 254 253 253 254 255 257 258 259 261 261 262 262
251 251 252 252 252 252 251 251 251 251 251 252 252 253 253 254 254 254 254 255 255 255 255 255 255 255 255 255 254 254 254 254 254 254 254 254 254 254 254 254 253 253 253 253 253 253 253 253 252 252 252 251 251 251 251 252 252 252 252 253 253 253 254 254 254 254 255 255 255 254 254 254 254 254 254 254 254 254 255 256 258 259 260 261 262
251 251 252 253 253 253 253 253 253 252 252 252 252 252 253 253 254 254 254 255 255 255 255 255 255 255 255 255 255 255 255 255 255 254 254 253 253 253 253 253 253 253 253 253 253 252 252 252 252 252 252 252 252 251 251 251 251 251 251 252 252 252 252 253 253 254 254 255 255 255 255 255 254 254 254 254 254 254 254 254 255 257 258 259 261
250 251 251 252 253 253 253 254 254 254 253 253 253 253 253 253 253 253 254 254 254 255 255 255 255 255 255 255 255 255 255 255 255 255 254 254 253 253 253 253 253 253 253 253 252 252 252 252 251 251 251 251 252 252 252 251 251 251 250 251 251 251 251 251 252 252 253 253 254 255 255 255 255 255 255 255 254 254 254 254 255 255 256 257 258
251 251 252 252 252 253 253 253 254 254 254 254 254 254 254 254 253 254 254 254 254 254 255 255 255 255 255 256 256 256 256 256 255 255 255 255 254 254 253 253 253 252 252 252 252 252 252 251 251 251 251 251 251 251 251 251 251 251 250 250 250 250 250 250 250 251 251 252 252 253 254 255 255 256 256 256 256 255 255 255 255 255 255 255 256
252 252 252 252 253 253 253 253 254 254 254 254 254 254 254 255 254 254 254 254 254 254 255 255 255 255 255 256 256 256 256 256 256 256 256 256 255 255 255 254 254 254 253 253 252 252 252 251 251 251 250 250 250 250 250 250 250 251 250 250 249 249 249 249 249 250 250 250 251 251 252 253 253 254 255 256 256 256 256 256 256 256 256 256 256
253 253 253 253 253 253 254 254 254 254 254 254 254 254 254 254 254 255 255 255 255 255 255 255 255 255 255 255 256 256 256 256 256 256 256 256 256 256 256 256 255 255 255 255 254 253 253 252 251 251 250 250 249 249 249 249 249 249 250 250 249 249 249 248 248 249 249 250 250 250 250 251 251 252 253 254 255 256 257 257 257 257 257 257 256
Height
11023 11023 11024 11026 11027 11028 11028 11028 11028 11029 11029 11029 11030 11030 11030 11029 11029 11028 11028 11028 11028 11028 11028 11028 11027 11027 11026 11026 11025 11025 11024 11024 11024 11023 11022 11022 11021 11020 11019 11019 11018 11017 11016 11015 11014 11013 11012 11011 11010 11009 11008 11007 11006 11004 11003 11002 11001 11000 10999 10998 10997 10996 10995 10995 10994 10993 10993 10992 10992 10991 10990 10989 10988 10988 10987 10986 10986 10986 10985 10985 10985 10985 10985 10985 10985
11023 11023 11023 11024 11026 11027 11028 11028 11028 11028 11028 11029 11029 11030 11030 11030 11030 11029 11029 11028 11028 11028 11029 11029 11028 11028 11027 11026 11026 11025 11025 11025 11024 11024 11024 11023 11022 11022 11021 11020 11020 11019 11018 11017 11016 11015 11014 11013 11012 11011 11010 11009 11008 11007 11006 11005 11004 11003 11002 11001 11000 10999 10998 10997 10997 10996 10996 10996 10995 10994 10994 10993 10993 10992 10991 10991 10991 10990 10990 10990 10990 10990 10990 10990 10989
11021 11022 11023 11024 11025 11025 11026 11026 11027 11027 11027 11028 11028 11029 11030 11030 11030 11030 11030 11029 11029 11029 11029 11029 11029 11029 11028 11028 11027 11026 11025 11025 11025 11025 11025 11024 11024 11023 11022 11022 11021 11021 11020 11019 11018 11017 11016 11015 11014 11014 11013 11012 11011 11010 11009 11008 11007 11006 11005 11004 11003 11002 11002 11001 11000 11000 11000 10999 10999 10998 10998 10997 10997 10997 10997 10996 10996 10996 10996 10995 10995 10995 10994 10994 10994
11020 11021 11023 11023 11023 11023 11024 11025 11026 11027 11027 11027 11027 11028 11029 11029 11030 11030 11030 11030 11030 11029 11029 11029 11030 11030 11030 11029 11028 11028 11027 11026 11026 11026 11026 11026 11025 11025 11024 11023 11023 11022 11022 11021 11020 11019 11018 11017 11017 11016 11015 11014 11013 11013 11012 11011 11010 11009 11008 11008 11007 11006 11005 11005 11004 11004 11004 11003 11003 11003 11002 11002 11002 11001 11001 11001 11001 11000 11000 11000 11000 10999 10999 10999 10998
11018 11019 11020 11021 11021 11021 11022 11025 11027 11028 11027 11026 11026 11026 11027 11028 11029 11030 11030 11030 11030 11030 11030 11030 11030 11030 11030 11030 11030 11029 11029 11028 11027 11027 11027 11026 11026 11026 11025 11025 11024 11024 11023 11023 11022 11021 11020 11019 11019 11018 11017 11017 11016 11015 11014 11013 11013 11012 11011 11011 11010 11010 11009 11009 11009 11008 11008 11008 11007 11007 11006 11006 11006 11005 11005 11005 11005 11005 11004 11004 11004 11004 11003 11003 11002
11015 11016 11017 11018 11018 11020 11022 11024 11026 11026 11026 11025 11025 11025 11025 11026 11027 11028 11029 11029 11030 11030 11030 11030 11030 11030 11030 11030 11030 11030 11030 11029 11028 11027 11027 11027 11027 11026 11026 11026 11025 11025 11024 11024 11023 11023 11022 11021 11020 11020 11019 11019 11018 11017 11017 11016 11015 11015 11014 11014 11014 11013 11013 11013 11013 11013 11013 11012 11012 11011 11011 11010 11010 11010 11010 11009 11009 11009 11008 11008 11007 11007 11007 11006 11006
11013 11014 11014 11015 11017 11019 11021 11021 11022 11023 11024 11024 11024 11024 11024 11024 11025 11026 11027 11027 11028 11029 11030 11030 11030 11031 11031 11031 11031 11030 11030 11029 11029 11028 11027 11027 11027 11027 11026 11026 11026 11026 11026 11025 11025 11024 11024 11023 11022 11022 11021 11021 11020 11019 11019 11018 11018 11017 11017 11017 11016 11016 11017 11017 11017 11017 11017 11017 11017 11016 11015 11015 11014 11014 11014 11014 11013 11013 11012 11012 11011 11011 11010 11010 11009
11011 11011 11011 11012 11014 11017 11018 11019 11019 11020 11021 11022 11023 11023 11022 11022 11022 11023 11024 11025 11026 11027 11028 11029 11030 11030 11031 11031 11031 11031 11030 11030 11029 11029 11028 11027 11027 11027 11027 11027 11027 11027 11027 11026 11026 11026 11026 11025 11025 11024 11023 11023 11022 11022 11021 11021 11020 11020 11019 11019 11019 11019 11019 11020 11020 11020 11020 11020 11020 11020 11019 11019 11019 11018 11018 11018 11017 11017 11016 11016 11015 11014 11014 11013 11013
11008 11008 11007 11008 11012 11015 11016 11016 11016 11017 11018 11019 11020 11020 11020 11020 11019 11020 11021 11023 11024 11025 11026 11027 11028 11029 11030 11030 11031 11031 11030 11030 11029 11029 11028 11028 11027 11027 11027 11027 11027 11027 11027 11027 11027 11026 11026 11026 11026 11026 11025 11025 11024 11024 11023 11023 11022 11022 11022 11021 11021 11021 11022 11022 11022 11022 11023 11023 11023 11023 11022 11022 11022 11021 11021 11021 11020 11020 11019 11019 11018 11017 11016 11016 11015
11004 11006 11005 11006 11010 11013 11014 11014 11014 11014 11014 11015 11015 11016 11017 11017 11016 11016 11018 11019 11021 11023 11025 11026 11027 11028 11029 11029 11029 11030 11030 11029 11029 11029 11029 11028 11028 11027 11027 11027 11027 11027 11027 11027 11027 11027 11027 11027 11026 11026 11026 11026 11026 11025 11025 11025 11024 11024 11024 11024 11023 11023 11024 11024 11024 11024 11024 11024 11025 11025 11025 11024 11024 11024 11023 11023 11022 11022 11021 11021 11020 11019 11019 11018 11017
11001 11003 11004 11006 11008 11011 11013 11013 11012 11011 11011 11011 11011 11012 11013 11012 11011 11011 11013 11016 11018 11020 11022 11024 11026 11027 11028 11028 11028 11028 11029 11029 11028 11028 11028 11028 11028 11027 11026 11026 11026 11026 11026 11026 11026 11026 11026 11026 11026 11026 11026 11026 11026 11026 11026 11026 11026 11026 11026 11025 11025 11025 11025 11025 11025 11026 11026 11026 11026 11026 11026 11026 11025 11025 11025 11024 11024 11024 11023 11023 11022 11021 11020 11020 11019
10998 11001 11004 11006 11006 11007 11008 11008 11008 11008 11008 11008 11009 11009 11009 11007 11006 11006 11008 11011 11015 11018 11021 11023 11024 11025 11026 11027 11027 11027 11027 11028 11028 11027 11027 11027 11027 11027 11026 11026 11025 11025 11025 11025 11026 11026 11026 11026 11026 11026 11026 11026 11026 11026 11026 11026 11026 11027 11027 11027 11026 11026 11026 11026 11026 11026 11026 11026 11026 11026 11026 11026 11026 11025 11025 11025 11025 11024 11024 11024 11023 11022 11022 11021 11020
10993 10997 11001 11003 11001 11001 11002 11002 11003 11004 11005 11005 11006 11005 11004 11003 11003 11006 11009 11012 11014 11017 11019 11021 11022 11023 11024 11024 11025 11026 11026 11026 11027 11027 11026 11026 11026 11025 11025 11025 11025 11025 11025 11024 11025 11025 11025 11025 11025 11025 11025 11025 11025 11025 11026 11026 11026 11027 11027 11027 11027 11027 11027 11027 11027 11026 11026 11026 11026 11026 11026 11026 11026 11025 11025 11025 11024 11024 11024 11023 11023 11023 11022 11022 11021
10987 10990 10994 10994 10993 10994 10996 10997 10998 11000 11001 11002 11002 11001 11001 11003 11005 11009 11013 11016 11018 11018 11018 11018 11019 11020 11020 11021 11022 11023 11024 11025 11025 11026 11025 11025 11024 11024 11024 11024 11024 11024 11024 11024 11024 11024 11024 11024 11024 11024 11024 11024 11025 11025 11025 11025 11026 11026 11026 11027 11027 11027 11027 11027 11026 11026 11026 11026 11026 11026 11025 11025 11025 11025 11024 11024 11024 11023 11023 11022 11022 11022 11021 11021 11020
10979 10982 10984 10985 10985 10988 10991 10992 10993 10996 10998 10999 10999 10998 10999 11003 11007 11010 11014 11017 11018 11018 11016 11016 11017 11018 11018 11018 11019 11021 11022 11024 11024 11024 11024 11023 11023 11022 11022 11023 11023 11022 11022 11022 11022 11022 11022 11022 11023 11023 11023 11023 11024 11024 11024 11024 11025 11025 11026 11026 11026 11027 11027 11026 11026 11026 11025 11025 11025 11025 11025 11025 11024 11024 11024 11023 11023 11023 11022 11022 11021 11021 11020 11020 11019
10972 10974 10976 10977 10978 10982 10986 10987 10987 10990 10993 10996 10998 10997 10997 11000 11004 11007 11009 11011 11013 11015 11014 11013 11013 11014 11015 11016 11016 11018 11020 11021 11022 11022 11022 11021 11021 11020 11020 11021 11021 11021 11021 11021 11021 11021 11021 11021 11021 11021 11022 11022 11022 11022 11022 11023 11023 11024 11024 11025 11025 11026 11026 11026 11025 11025 11024 11024 11024 11024 11023 11023 11023 11023 11023 11022 11022 11021 11021 11021 11020 11019 11019 11019 11018
10965 10967 10969 10970 10971 10975 10979 10980 10981 10983 10987 10991 10994 10995 10995 10997 10999 11000 11002 11004 11007 11010 11012 11010 11009 11010 11011 11012 11014 11015 11017 11018 11018 11019 11020 11020 11019 11018 11018 11018 11018 11019 11019 11019 11019 11019 11019 11019 11019 11020 11020 11021 11021 11020 11020 11020 11020 11021 11022 11022 11023 11024 11024 11024 11023 11023 11023 11023 11022 11022 11022 11022 11021 11021 11021 11020 11020 11020 11019 11019 11018 11018 11017 11017 11016
10958 10960 10962 10964 10965 10968 10971 10973 10975 10977 10980 10983 10987 10990 10992 10993 10995 10995 10997 11000 11003 11005 11006 11007 11006 11007 11007 11008 11010 11012 11014 11015 11015 11015 11016 11017 11017 11016 11015 11015 11015 11015 11016 11017 11016 11016 11016 11016 11017 11018 11018 11019 11019 11018 11017 11017 11017 11018 11018 11019 11020 11021 11022 11021 11020 11020 11021 11021 11021 11021 11020 11020 11019 11019 11019 11018 11018 11017 11017 11017 11016 11015 11014 11014 11013
10952 10953 10955 10957 10959 10961 10963 10966 10968 10971 10973 10976 10980 10983 10986 10989 10990 10991 10992 10994 10996 10998 10999 11000 11001 11002 11003 11004 11005 11007 11010 11012 11013 11013 11013 11014 11015 11014 11014 11013 11012 11012 11012 11013 11013 11013 11013 11014 11015 11015 11016 11016 11016 11015 11015 11014 11014 11014 11015 11016 11016 11019 11020 11018 11017 11017 11018 11018 11018 11019 11019 11018 11018 11017 11017 11016 11016 11015 11015 11014 11014 11012 11011 11011 11010
10945 10946 10948 10949 10951 10953 10955 10958 10961 10964 10966 10969 10972 10975 10978 10982 10984 10985 10985 10986 10988 10989 10991 10993 10994 10996 10998 11000 11002 11004 11005 11007 11009 11010 11011 11011 11011 11011 11010 11010 11009 11009 11009 11008 11009 11009 11010 11011 11012 11012 11012 11013 11013 11013 11012 11012 11011 11011 11012 11012 11013 11016 11017 11015 11014 11014 11014 11015 11015 11016 11016 11016 11016 11015 11014 11014 11013 11013 11012 11012 11011 11010 11009 11008 11007
10936 10938 10939 10941 10943 10945 10947 10950 10953 10956 10958 10960 10963 10966 10969 10972 10975 10977 10978 10979 10981 10982 10984 10985 10987 10988 10991 10994 10997 11000 11002 11003 11005 11007 11007 11008 11008 11008 11007 11006 11005 11005 11005 11005 11005 11005 11006 11007 11009 11009 11009 11009 11009 11009 11009 11009 11009 11008 11008 11009 11010 11012 11014 11013 11012 11011 11011 11011 11011 11011 11012 11012 11012 11012 11012 11011 11011 11010 11009 11009 11008 11008 11007 11006 11006
10926 10928 10930 10932 10934 10936 10939 10941 10944 10947 10949 10951 10953 10957 10960 10963 10966 10968 10970 10971 10973 10975 10977 10978 10979 10981 10983 10985 10989 10993 10996 10997 11000 11003 11004 11003 11003 11003 11003 11002 11001 11000 11000 10999 11000 11000 11001 11003 11004 11005 11005 11005 11005 11006 11006 11006 11007 11006 11005 11006 11007 11009 11010 11010 11009 11009 11008 11007 11007 11006 11007 11008 11009 11008 11008 11008 11008 11007 11006 11005 11005 11005 11004 11004 11004
10915 10918 10921 10923 10925 10927 10930 10933 10935 10938 10940 10942 10944 10947 10951 10954 10957 10959 10962 10963 10966 10968 10969 10970 10971 10973 10974 10977 10980 10983 10987 10990 10994 10997 10999 10998 10997 10997 10998 10998 10997 10996 10995 10994 10995 10995 10996 10997 10999 11000 11001 11001 11002 11003 11003 11004 11004 11003 11003 11003 11003 11004 11005 11006 11006 11006 11005 11004 11003 11002 11002 11003 11004 11004 11004 11004 11004 11003 11003 11002 11002 11001 11001 11001 11000
10904 10907 10910 10913 10916 10918 10921 10924 10927 10930 10932 10934 10936 10939 10942 10945 10948 10951 10953 10955 10958 10960 10961 10962 10963 10964 10966 10968 10971 10974 10977 10980 10984 10988 10990 10991 10991 10991 10992 10992 10991 10991 10991 10990 10990 10990 10991 10992 10992 10993 10994 10996 10997 10999 10999 11000 11000 11000 10999 10999 10999 10999 11000 11001 11001 11002 11001 11000 10999 10999 10998 10998 10998 10999 10999 10999 10999 10999 10999 10999 10999 10999 10998 10997 10997
10892 10895 10899 10902 10905 10908 10911 10914 10918 10921 10923 10925 10927 10930 10933 10937 10939 10942 10944 10946 10949 10951 10952 10954 10955 10955 10957 10959 10962 10965 10967 10970 10974 10977 10980 10982 10983 10984 10985 10986 10985 10985 10985 10984 10984 10985 10985 10986 10986 10987 10988 10989 10991 10992 10994 10995 10995 10996 10995 10995 10994 10994 10995 10995 10996 10997 10996 10995 10995 10995 10994 10994 10994 10994 10994 10994 10994 10994 10994 10995 10995 10995 10995 10994 10993
10879 10883 10886 10889 10893 10897 10900 10903 10907 10910 10912 10914 10917 10920 10923 10927 10930 10933 10935 10936 10939 10941 10943 10944 10946 10947 10949 10950 10953 10956 10958 10960 10963 10966 10969 10971 10973 10975 10977 10978 10978 10979 10979 10977 10976 10978 10979 10979 10980 10980 10981 10982 10984 10985 10987 10988 10989 10990 10991 10991 10990 10990 10990 10990 10991 10991 10991 10990 10990 10991 10991 10991 10991 10990 10989 10989 10989 10989 10990 10991 10991 10991 10991 10991 10989
10866 10869 10873 10876 10880 10884 10888 10892 10896 10899 10901 10903 10906 10910 10913 10916 10919 10922 10925 10926 10928 10930 10932 10934 10937 10939 10940 10942 10943 10946 10949 10951 10954 10956 10958 10960 10962 10965 10967 10969 10970 10972 10971 10969 10969 10971 10972 10971 10972 10973 10974 10976 10977 10979 10980 10982 10983 10984 10985 10985 10985 10985 10985 10985 10986 10986 10985 10985 10986 10986 10986 10987 10988 10987 10986 10986 10985 10984 10986 10987 10987 10986 10986 10986 10985
10853 10857 10860 10864 10868 10872 10876 10880 10884 10887 10890 10893 10895 10898 10902 10905 10908 10911 10914 10916 10917 10919 10920 10923 10927 10929 10931 10933 10934 10935 10939 10942 10945 10946 10947 10949 10951 10953 10956 10959 10961 10962 10962 10961 10961 10963 10964 10964 10964 10965 10967 10968 10970 10972 10973 10975 10976 10977 10978 10979 10980 10980 10980 10980 10980 10980 10980 10981 10981 10981 10980 10982 10983 10983 10983 10982 10981 10980 10981 10983 10982 10981 10981 10982 10981
10842 10845 10848 10852 10856 10860 10864 10867 10870 10874 10878 10881 10883 10886 10889 10892 10895 10898 10902 10904 10906 10908 10910 10913 10916 10919 10921 10922 10923 10925 10928 10932 10935 10936 10936 10938 10940 10942 10945 10948 10950 10951 10953 10953 10953 10954 10956 10956 10956 10958 10959 10961 10962 10964 10966 10967 10969 10970 10971 10972 10973 10974 10974 10974 10974 10974 10975 10976 10976 10975 10974 10975 10977 10978 10978 10978 10977 10975 10976 10978 10977 10976 10977 10978 10977
10829 10833 10836 10839 10843 10847 10851 10854 10857 10860 10864 10867 10870 10873 10875 10878 10881 10885 10889 10892 10894 10896 10899 10902 10905 10908 10910 10912 10914 10915 10916 10920 10924 10926 10927 10928 10929 10931 10934 10937 10938 10940 10942 10944 10945 10946 10948 10948 10949 10950 10951 10952 10954 10956 10958 10960 10961 10962 10964 10965 10966 10966 10967 10967 10968 10968 10969 10970 10969 10968 10968 10969 10970 10971 10972 10972 10972 10971 10971 10972 10972 10971 10972 10973 10972
10816 10819 10823 10827 10831 10834 10838 10841 10843 10846 10849 10853 10857 10860 10862 10864 10866 10870 10875 10880 10883 10885 10887 10890 10893 10896 10899 10901 10903 10905 10906 10907 10911 10915 10916 10917 10918 10920 10922 10924 10927 10928 10931 10933 10935 10937 10939 10940 10941 10942 10943 10944 10946 10947 10949 10951 10953 10954 10955 10957 10957 10958 10959 10960 10960 10961 10962 10962 10962 10962 10962 10963 10963 10964 10965 10966 10966 10966 10966 10966 10966 10966 10966 10967 10967
10803 10807 10811 10814 10817 10821 10825 10828 10830 10832 10835 10839 10843 10846 10848 10851 10854 10857 10861 10865 10869 10873 10875 10877 10880 10883 10886 10889 10891 10893 10895 10896 10898 10901 10904 10906 10906 10908 10910 10912 10915 10917 10919 10922 10925 10927 10928 10930 10931 10933 10934 10935 10937 10938 10940 10942 10944 10945 10947 10948 10949 10950 10951 10951 10952 10954 10954 10955 10955 10955 10955 10956 10956 10957 10957 10958 10959 10959 10959 10959 10960 10960 10961 10961 10961
10789 10793 10796 10800 10803 10807 10811 10814 10817 10819 10822 10825 10829 10832 10835 10838 10841 10845 10849 10851 10854 10857 10860 10863 10866 10869 10873 10877 10879 10881 10883 10884 10885 10887 10891 10894 10896 10897 10898 10900 10902 10905 10908 10911 10913 10916 10918 10919 10921 10922 10924 10926 10927 10929 10930 10932 10934 10936 10937 10938 10940 10941 10942 10943 10944 10945 10946 10947 10947 10948 10948 10949 10949 10950 10950 10951 10952 10952 10952 10952 10953 10955 10956 10956 10956
10774 10778 10781 10785 10789 10793 10797 10801 10804 10806 10808 10811 10814 10818 10821 10825 10829 10832 10836 10838 10841 10842 10844 10848 10851 10855 10859 10863 10866 10868 10869 10871 10873 10874 10877 10880 10883 10886 10887 10889 10890 10893 10895 10898 10901 10904 10907 10909 10910 10912 10913 10915 10917 10919 10920 10922 10924 10926 10927 10929 10930 10931 10932 10933 10935 10937 10938 10939 10939 10940 10940 10941 10942 10942 10942 10943 10944 10945 10945 10945 10946 10947 10949 10950 10949
10760 10764 10767 10770 10773 10777 10782 10786 10789 10792 10794 10797 10800 10804 10808 10812 10816 10819 10822 10824 10827 10830 10831 10834 10837 10840 10843 10847 10851 10854 10855 10857 10859 10861 10863 10866 10869 10872 10874 10877 10879 10881 10883 10886 10888 10891 10894 10897 10899 10901 10902 10904 10906 10908 10910 10911 10913 10915 10917 10918 10920 10921 10922 10923 10925 10928 10929 10930 10931 10931 10932 10933 10934 10935 10935 10936 10936 10937 10937 10937 10937 10938 10940 10942 10942
10746 10750 10752 10755 10759 10762 10766 10770 10774 10777 10780 10783 10786 10790 10794 10798 10802 10805 10808 10810 10813 10816 10818 10820 10823 10826 10828 10831 10835 10839 10842 10844 10846 10847 10850 10853 10855 10858 10860 10863 10866 10869 10871 10874 10876 10879 10881 10884 10886 10888 10890 10893 10894 10897 10899 10900 10902 10903 10906 10907 10909 10910 10912 10913 10915 10917 10919 10921 10922 10923 10924 10925 10926 10926 10928 10929 10928 10928 10928 10928 10929 10930 10931 10932 10934
10730 10734 10737 10740 10743 10747 10751 10754 10758 10762 10765 10769 10772 10776 10780 10784 10787 10790 10793 10795 10798 10801 10803 10806 10808 10811 10814 10817 10821 10824 10827 10829 10831 10833 10835 10838 10841 10844 10847 10849 10852 10855 10858 10861 10864 10866 10869 10871 10873 10875 10878 10880 10882 10885 10887 10889 10891 10892 10893 10895 10897 10899 10901 10903 10904 10906 10909 10911 10912 10913 10915 10916 10916 10918 10920 10921 10920 10919 10918 10919 10920 10922 10923 10924 10925
10713 10717 10720 10723 10728 10732 10735 10739 10742 10746 10750 10754 10757 10760 10764 10767 10771 10774 10778 10780 10783 10786 10789 10791 10793 10796 10799 10803 10806 10810 10812 10814 10817 10819 10821 10824 10827 10830 10832 10835 10839 10841 10844 10847 10849 10852 10855 10858 10861 10864 10866 10867 10869 10871 10874 10876 10878 10880 10881 10883 10885 10887 10889 10891 10893 10895 10897 10899 10902 10903 10905 10906 10907 10908 10911 10913 10912 10909 10909 10910 10912 10913 10913 10914 10916
10695 10699 10702 10706 10711 10715 10718 10722 10726 10730 10734 10738 10741 10744 10747 10750 10754 10758 10761 10765 10768 10771 10774 10776 10777 10779 10782 10786 10790 10795 10798 10800 10802 10804 10807 10810 10813 10816 10818 10821 10824 10827 10830 10832 10834 10837 10841 10844 10848 10851 10853 10854 10856 10858 10860 10863 10865 10867 10868 10870 10871 10873 10876 10878 10881 10883 10886 10888 10891 10892 10894 10896 10896 10897 10901 10904 10902 10899 10899 10901 10902 10903 10903 10904 10905
10676 10680 10684 10688 10692 10697 10701 10706 10710 10714 10718 10721 10724 10726 10730 10733 10737 10741 10744 10748 10751 10754 10757 10760 10762 10764 10766 10770 10773 10778 10782 10785 10787 10789 10791 10794 10797 10800 10803 10806 10809 10812 10815 10817 10820 10823 10827 10830 10832 10836 10839 10841 10842 10844 10846 10849 10852 10854 10856 10858 10859 10860 10862 10864 10867 10870 10873 10876 10879 10881 10882 10884 10885 10886 10889 10892 10890 10888 10890 10892 10892 10893 10895 10894 10894
10657 10660 10664 10668 10673 10678 10684 10689 10693 10697 10700 10703 10706 10709 10713 10716 10720 10723 10727 10730 10733 10736 10739 10742 10745 10748 10750 10753 10757 10760 10764 10769 10772 10774 10776 10778 10781 10784 10787 10790 10793 10796 10799 10802 10805 10809 10812 10815 10817 10820 10823 10826 10828 10830 10832 10834 10837 10841 10843 10845 10847 10848 10849 10850 10853 10856 10859 10863 10866 10868 10870 10872 10873 10874 10876 10878 10878 10878 10880 10881 10882 10884 10885 10885 10885
10638 10640 10644 10648 10654 10660 10666 10670 10675 10678 10681 10685 10688 10691 10695 10699 10702 10705 10708 10711 10714 10717 10721 10724 10727 10730 10733 10736 10739 10742 10746 10751 10754 10757 10759 10762 10764 10767 10770 10773 10777 10780 10783 10786 10790 10793 10796 10800 10803 10805 10808 10811 10813 10815 10817 10819 10822 10825 10829 10832 10834 10836 10837 10838 10839 10842 10845 10848 10851 10854 10857 10859 10860 10862 10863 10865 10866 10867 10868 10869 10871 10872 10874 10875 10875
10618 10621 10624 10628 10635 10642 10647 10651 10655 10659 10662 10665 10669 10672 10676 10679 10683 10686 10689 10693 10696 10699 10702 10705 10708 10711 10714 10717 10720 10723 10727 10731 10735 10739 10742 10744 10746 10749 10752 10756 10759 10763 10766 10770 10773 10777 10781 10785 10788 10790 10793 10796 10798 10800 10803 10805 10807 10810 10814 10817 10820 10823 10824 10825 10826 10828 10831 10834 10837 10839 10842 10845 10848 10850 10851 10852 10853 10856 10857 10857 10857 10859 10861 10863 10864
10598 10601 10605 10610 10616 10623 10628 10633 10637 10640 10644 10647 10650 10653 10656 10659 10663 10666 10669 10673 10676 10679 10683 10686 10689 10692 10694 10697 10699 10702 10705 10710 10715 10719 10722 10725 10727 10730 10734 10738 10741 10745 10749 10752 10756 10759 10764 10768 10772 10775 10778 10780 10783 10785 10788 10790 10793 10796 10799 10802 10805 10808 10810 10812 10813 10814 10817 10820 10822 10824 10827 10830 10833 10836 10838 10839 10841 10844 10845 10845 10844 10846 10848 10850 10852
10579 10583 10588 10593 10598 10604 10609 10614 10618 10622 10626 10629 10631 10634 10636 10639 10643 10646 10649 10652 10656 10660 10663 10666 10668 10671 10674 10676 10678 10681 10684 10688 10692 10697 10701 10705 10708 10711 10714 10718 10722 10726 10730 10734 10738 10742 10746 10750 10755 10758 10761 10764 10767 10770 10772 10774 10777 10780 10784 10787 10790 10792 10794 10796 10798 10801 10803 10805 10807 10809 10812 10815 10818 10821 10823 10826 10829 10831 10833 10833 10832 10833 10835 10836 10838
10563 10567 10572 10575 10580 10585 10589 10594 10599 10603 10607 10610 10613 10615 10618 10620 10623 10626 10629 10633 10637 10639 10642 10644 10647 10649 10652 10654 10657 10660 10662 10666 10670 10674 10679 10683 10686 10689 10693 10697 10701 10705 10710 10715 10719 10724 10728 10732 10736 10740 10744 10747 10750 10753 10756 10758 10761 10764 10767 10771 10775 10778 10779 10780 10783 10786 10788 10790 10792 10795 10797 10800 10803 10805 10808 10811 10814 10818 10820 10821 10821 10822 10823 10823 10825
10549 10552 10555 10559 10562 10566 10570 10575 10579 10583 10587 10591 10594 10597 10600 10602 10604 10606 10610 10613 10616 10618 10621 10623 10625 10628 10630 10633 10636 10638 10641 10643 10647 10651 10655 10660 10664 10668 10671 10675 10679 10683 10688 10693 10698 10703 10708 10712 10717 10721 10726 10730 10733 10735 10738 10741 10744 10747 10750 10754 10758 10761 10764 10765 10768 10770 10772 10774 10777 10780 10782 10785 10787 10789 10791 10795 10798 10802 10806 10808 10808 10809 10811 10812 10812
10535 10537 10540 10543 10546 10549 10552 10556 10559 10563 10567 10571 10574 10578 10580 10583 10585 10587 10590 10592 10594 10596 10599 10602 10604 10607 10609 10612 10614 10617 10619 10621 10624 10628 10632 10636 10641 10645 10649 10653 10657 10661 10665 10671 10676 10681 10687 10692 10697 10702 10707 10711 10715 10717 10720 10723 10725 10728 10732 10736 10739 10743 10746 10749 10752 10755 10756 10759 10762 10765 10767 10770 10772 10774 10775 10778 10782 10785 10789 10792 10794 10796 10797 10799 10800
10518 10521 10524 10527 10530 10532 10535 10538 10541 10544 10548 10551 10555 10558 10561 10564 10566 10568 10569 10571 10573 10576 10578 10581 10583 10585 10588 10590 10593 10595 10597 10600 10603 10606 10609 10613 10618 10622 10626 10631 10635 10639 10643 10648 10653 10659 10664 10670 10675 10681 10686 10691 10695 10698 10701 10704 10706 10709 10713 10717 10720 10724 10728 10731 10735 10738 10740 10743 10746 10749 10752 10755 10757 10759 10760 10762 10765 10768 10772 10775 10778 10780 10782 10786 10788
10501 10504 10507 10510 10513 10516 10518 10521 10524 10527 10530 10533 10536 10539 10541 10544 10546 10547 10550 10552 10553 10555 10557 10559 10561 10564 10566 10569 10571 10573 10575 10578 10581 10584 10588 10592 10596 10601 10605 10609 10613 10617 10622 10627 10632 10637 10642 10647 10653 10658 10663 10668 10672 10677 10681 10684 10686 10689 10692 10696 10700 10704 10708 10712 10716 10719 10722 10725 10729 10733 10735 10739 10742 10743 10745 10746 10748 10751 10754 10757 10760 10763 10766 10770 10773
10485 10488 10491 10494 10497 10500 10502 10504 10507 10509 10512 10514 10517 10519 10521 10524 10526 10528 10530 10532 10533 10535 10536 10538 10540 10542 10545 10547 10549 10552 10554 10557 10560 10563 10566 10570 10574 10579 10584 10588 10592 10596 10601 10605 10610 10615 10620 10625 10629 10634 10639 10644 10649 10654 10658 10663 10666 10669 10672 10675 10679 10683 10688 10693 10697 10700 10702 10707 10712 10715 10718 10721 10724 10727 10729 10731 10732 10735 10738 10740 10742 10746 10750 10753 10756